This is the latest recevied weather packets stored in our database for station/object KA6AKH-13. If no packets are shown the sender has not sent any weather packets the latest 10 day(s).
| Time | Temp. | Humidity | Pressure | Rain* | Wind** | Luminosity | Snow |
|---|---|---|---|---|---|---|---|
| 1777737997 | 13.89° C | 55% | 1014.5 hPa | 0 mm | - | - | - |
| 1777737745 | 13.89° C | 55% | 1014.5 hPa | 0 mm | - | - | - |
| 1777736515 | 13.33° C | 53% | 1014.5 hPa | 0 mm | - | - | - |
| 1777736098 | 13.33° C | 56% | 1014.6 hPa | 0 mm | - | - | - |
| 1777735915 | 13.33° C | 56% | 1014.6 hPa | 0 mm | - | - | - |
| 1777734715 | 13.33° C | 56% | 1014.7 hPa | 0 mm | - | - | - |
| 1777733484 | 12.78° C | 57% | 1014.5 hPa | 0 mm | - | - | - |
| 1777732853 | 12.22° C | 60% | 1014.3 hPa | 0 mm | - | - | - |
| 1777732293 | 12.22° C | 62% | 1014.4 hPa | 0 mm | - | - | - |
| 1777732254 | 12.22° C | 62% | 1014.4 hPa | 0 mm | - | - | - |
| 1777731655 | 12.22° C | 64% | 1014.4 hPa | 0 mm | - | - | - |
| 1777731055 | 11.67° C | 65% | 1014.2 hPa | 0 mm | - | - | - |
| 1777730476 | 11.11° C | 66% | 1014.3 hPa | 0 mm | - | - | - |
| 1777730425 | 11.11° C | 66% | 1014.3 hPa | 0 mm | - | - | - |
| 1777729165 | 10.56° C | 69% | 1014.3 hPa | 0 mm | - | - | - |
| 1777727305 | 10° C | 70% | 1014.4 hPa | 0 mm | - | - | - |
| 1777726044 | 10° C | 69% | 1014.2 hPa | 0 mm | - | - | - |
| 1777725413 | 10° C | 70% | 1014.4 hPa | 0 mm | - | - | - |
| 1777724814 | 10° C | 70% | 1014.4 hPa | 0 mm | - | - | - |
| 1777724184 | 10° C | 71% | 1014.3 hPa | 0 mm | - | - | - |
| 1777723584 | 10° C | 71% | 1014.4 hPa | 0 mm | - | - | - |
| 1777722324 | 10° C | 72% | 1014.2 hPa | 0 mm | - | - | - |
| 1777721695 | 10° C | 70% | 1014.2 hPa | 0 mm | - | - | - |
| 1777721095 | 10° C | 69% | 1014.2 hPa | 0 mm | - | - | - |
| 1777720464 | 10° C | 69% | 1014.3 hPa | 0 mm | - | - | - |
* Rain latest hour (hover to see other rain measurements)
** Current wind speed in m/s (hover to see current wind gust speed)